Wind_Speed
27 31 30 27 28 33 33 30 27 23 20 21 22 22 20 16 15 14 13 11 11 11 10 10 10 9 9 8 8 7 6 5 5 5 5 6 6 6 6 6 6 6 7 7 7 7 8 8 9 10 10 11 12 12 11 11 15 18 15 10 9 12 13 12 14 15 11 11 12 13 15 14 13 13 12 10 8 8 10 9 8 7 8 7 6
26 30 29 27 29 33 31 27 24 21 21 23 23 21 19 16 15 14 13 12 11 10 10 10 10 9 9 8 8 8 6 5 5 5 5 5 6 6 5 5 5 6 6 6 6 7 8 8 9 10 11 11 11 12 12 12 15 17 15 9 9 12 12 12 16 16 12 12 12 13 15 14 13 14 13 11 8 7 10 11 9 7 7 7 6
23 26 27 28 30 30 27 26 23 20 22 25 25 22 19 17 16 14 13 12 11 10 10 10 9 9 8 8 8 9 7 6 5 5 5 5 5 6 6 6 6 6 5 4 6 8 8 9 9 10 11 10 11 13 14 14 16 16 13 9 9 11 10 11 16 16 13 14 13 13 14 14 13 14 14 12 9 6 9 13 11 8 7 8 10
21 24 26 29 30 28 27 26 23 22 25 25 23 20 18 17 16 14 13 12 11 10 10 10 9 8 8 8 8 9 8 7 6 5 5 5 5 5 6 6 6 5 4 4 5 6 8 10 10 10 10 10 12 13 13 16 17 15 12 10 10 11 9 10 15 17 15 14 14 13 14 13 13 13 14 14 12 9 9 13 13 11 9 9 12
23 26 29 30 30 29 30 27 23 24 26 24 21 19 18 17 15 14 13 11 10 10 10 10 9 8 8 7 7 8 8 7 6 6 6 6 6 6 6 6 6 5 5 5 5 7 9 10 10 11 11 11 12 13 13 15 15 14 13 12 10 11 9 9 12 15 16 14 13 13 13 13 12 13 14 15 14 12 11 13 14 13 12 11 14
27 30 31 30 29 31 31 28 25 24 23 21 19 19 17 16 15 14 12 11 10 10 10 10 10 9 8 8 7 7 7 6 6 6 6 6 6 7 7 7 6 6 5 4 4 6 9 9 10 11 12 11 12 14 14 14 13 13 13 12 11 11 11 10 9 11 13 13 13 12 13 13 13 13 14 15 15 14 13 13 13 14 13 14 17
28 29 29 27 27 29 27 27 26 24 22 21 19 19 17 16 15 14 11 11 11 11 10 10 10 8 8 7 7 7 6 5 5 5 5 6 6 7 8 8 7 6 6 5 3 5 9 9 9 10 10 11 12 13 14 14 13 12 13 12 11 11 12 11 10 9 10 11 12 13 13 14 14 13 13 14 15 14 14 14 14 14 15 15 18
26 28 27 25 26 26 23 23 25 23 20 20 20 18 16 15 14 13 11 11 11 11 10 10 9 8 8 7 6 6 6 6 7 7 7 6 6 7 8 8 8 7 7 6 3 3 7 10 9 10 10 11 12 13 13 13 12 12 12 12 11 11 12 12 11 11 11 11 12 12 13 14 14 13 13 14 15 15 14 14 14 14 15 15 17
26 29 28 26 25 25 23 22 24 22 19 20 20 18 16 15 15 14 12 12 12 11 10 10 9 8 8 7 6 7 8 10 11 11 11 9 6 6 7 8 8 9 8 7 5 4 5 9 12 12 11 12 15 15 14 14 13 12 11 12 11 10 11 12 12 12 12 13 13 13 14 14 15 15 14 14 15 15 14 14 14 14 14 15 16
25 27 27 27 25 26 27 25 24 24 21 20 20 18 16 17 16 15 14 13 13 12 11 10 8 7 7 7 7 9 12 12 13 13 12 11 8 6 7 7 8 9 8 8 8 6 5 8 12 12 10 11 14 15 16 16 15 13 12 12 12 11 10 11 12 12 12 13 13 13 14 14 14 15 15 15 15 15 14 14 15 16 16 17 18
24 26 26 26 26 28 29 27 26 25 23 21 20 18 18 19 19 18 17 17 16 15 13 11 9 9 8 6 6 7 9 10 12 13 12 12 11 9 6 6 8 9 9 9 9 8 7 7 10 11 10 10 11 13 14 14 13 14 14 13 13 13 12 11 11 11 11 11 12 13 13 14 14 14 15 15 15 16 16 16 16 17 18 19 19
24 24 22 20 23 26 25 24 27 27 27 26 24 22 23 24 23 20 19 19 18 16 13 11 10 10 8 7 6 6 7 7 7 9 10 12 13 11 7 4 7 8 8 8 8 9 9 8 8 10 10 10 11 11 12 12 11 12 13 13 13 14 14 14 13 11 11 11 12 12 12 13 13 13 14 15 15 16 17 17 17 18 19 20 21
24 24 21 18 21 23 22 24 28 29 28 26 25 25 26 24 22 21 18 16 14 12 10 9 9 10 9 9 9 8 7 6 5 5 7 8 10 10 7 3 6 7 8 8 7 8 9 9 9 9 10 12 12 11 11 12 13 12 13 14 14 15 16 17 17 16 15 14 12 12 11 11 11 13 14 14 14 15 17 19 19 20 21 22 22
22 24 24 21 20 20 18 21 26 27 25 24 24 25 24 21 21 18 12 10 11 11 9 9 10 11 11 11 11 8 6 6 6 5 5 5 6 8 7 5 6 6 7 8 7 7 8 9 9 9 10 12 13 11 9 10 13 14 14 15 16 17 17 18 18 19 18 18 18 17 15 13 13 13 13 14 15 16 17 17 17 19 21 22 23
22 23 22 21 19 16 14 17 23 24 24 24 24 23 23 22 20 15 9 7 9 10 8 9 10 11 11 11 10 8 6 5 4 5 5 5 5 6 7 6 5 5 6 7 7 7 7 8 8 7 7 8 11 12 11 9 10 12 13 14 15 16 18 19 20 21 20 20 21 21 21 20 19 17 16 16 18 20 20 20 19 20 22 24 25
21 20 18 17 15 14 14 18 23 24 23 23 22 21 21 19 15 10 8 7 9 10 10 10 11 11 11 9 8 7 6 6 5 4 4 4 5 5 5 4 4 5 6 7 7 6 7 8 8 6 6 8 11 14 14 14 14 13 12 13 14 15 16 18 21 23 22 22 22 22 23 24 24 23 22 21 22 24 24 22 22 25 27 25 24
21 19 17 15 13 13 14 16 19 20 21 20 19 17 15 13 11 10 10 10 10 11 11 11 12 11 10 9 8 7 6 6 6 6 6 6 5 4 3 3 4 5 5 6 6 6 8 9 9 9 11 13 15 16 16 16 17 17 15 15 16 17 18 18 21 25 25 24 24 24 25 26 26 26 26 25 26 27 26 23 21 24 26 24 24
22 20 19 16 15 14 14 16 17 17 17 16 15 14 12 11 11 11 11 11 10 11 11 11 11 10 8 8 7 6 6 6 6 7 7 7 7 7 4 2 3 4 4 4 5 7 10 12 11 12 14 15 16 18 17 17 18 19 19 19 18 19 20 19 21 25 26 26 26 26 26 28 28 28 28 29 30 30 31 31 26 24 26 26 27
22 21 19 17 17 17 17 17 16 16 16 16 15 15 14 12 12 11 10 9 9 9 9 9 8 7 6 6 6 6 6 6 6 7 7 7 8 9 8 5 5 7 6 5 5 7 11 13 14 15 17 17 18 20 20 20 20 21 22 23 23 23 23 22 24 26 27 27 27 28 29 29 30 31 32 33 34 34 35 37 34 31 30 29 27
21 20 19 17 16 18 18 17 16 15 16 16 15 14 12 10 10 10 9 7 7 7 6 5 5 5 5 5 6 5 5 5 5 5 6 7 8 9 9 9 9 10 9 9 7 6 9 14 16 18 19 20 21 22 23 23 24 24 25 26 27 27 27 28 29 30 31 31 31 32 32 32 33 34 35 35 37 37 37 38 38 37 34 31 28
19 18 18 17 16 16 17 17 16 15 14 14 13 11 10 9 8 8 7 6 5 5 4 3 4 5 6 6 6 6 6 7 8 8 8 9 10 11 11 10 11 12 12 13 11 8 7 11 16 19 22 23 23 23 24 25 26 27 27 28 29 30 31 32 33 34 36 36 36 34 33 35 36 35 35 36 37 37 37 37 37 37 35 33 31
17 16 16 15 15 14 14 14 14 14 14 13 12 11 10 9 8 7 6 5 5 4 4 4 4 5 6 7 8 9 9 10 11 11 11 12 13 14 14 14 15 15 15 16 16 13 10 12 19 24 26 27 27 26 27 27 29 30 30 31 31 32 33 34 34 35 36 36 35 33 31 32 34 35 36 37 35 33 34 35 35 35 34 35 34
14 14 14 14 13 12 11 11 11 11 11 10 9 8 8 7 6 5 4 3 1 2 2 2 3 2 3 4 7 9 11 11 12 12 13 14 14 15 16 16 17 18 18 18 19 19 19 22 27 29 29 30 31 31 31 32 32 33 33 34 34 35 36 36 36 36 36 35 35 34 32 31 32 32 34 35 33 31 32 33 32 33 34 34 34
13 12 12 12 11 10 9 9 8 8 8 8 7 6 6 5 4 3 4 4 3 1 1 1 1 1 1 1 1 5 9 12 12 11 13 14 15 15 16 17 18 18 18 19 20 21 24 26 29 29 29 30 31 31 32 33 33 34 34 34 35 36 37 38 37 37 37 36 35 35 34 32 31 32 33 33 32 33 35 33 30 30 31 32 32
12 12 11 11 11 10 9 9 7 7 7 7 7 6 6 5 4 3 3 3 3 2 2 2 2 2 2 2 1 1 5 10 12 12 12 12 12 13 13 14 15 16 17 18 20 22 24 25 26 27 27 28 28 29 30 30 31 32 32 32 34 34 35 36 37 37 37 37 36 36 36 34 32 32 33 33 31 32 34 34 32 31 31 31 30
12 11 11 11 10 10 10 9 9 8 7 7 6 6 6 6 5 4 4 3 3 3 2 2 2 2 1 2 1 1 1 3 6 10 10 10 10 11 11 11 12 12 13 15 18 19 20 20 21 22 23 23 23 24 25 25 27 28 28 28 29 30 30 31 32 32 33 33 32 32 31 28 28 31 33 32 31 32 34 35 35 33 30 29 28
9 9 10 9 9 9 9 9 9 9 8 7 6 6 6 6 4 2 3 3 3 3 4 3 3 3 3 2 1 2 2 2 5 9 10 9 9 10 10 10 11 11 11 13 15 16 16 17 17 17 17 17 17 18 18 18 18 19 18 18 19 19 20 21 23 26 28 29 29 28 25 23 23 27 30 31 30 32 33 32 30 28 26 26 26
8 8 8 8 8 8 7 7 7 8 7 6 5 5 4 3 2 1 1 2 2 3 3 1 3 4 3 2 2 3 1 5 8 9 9 7 8 9 8 9 9 9 9 11 12 14 14 14 13 13 13 13 14 14 14 14 14 14 13 13 14 15 16 18 21 22 23 24 26 28 27 24 20 21 25 26 27 29 29 28 28 28 27 26 25
8 7 7 7 8 8 7 6 6 6 6 6 6 6 5 4 3 3 2 1 1 3 3 3 4 5 3 3 4 4 3 6 7 8 8 8 8 8 8 8 9 9 10 11 11 12 12 11 10 10 10 10 10 11 11 12 12 12 13 14 14 15 15 17 19 19 19 19 21 22 23 22 20 21 25 26 27 28 29 29 30 29 27 25 24
10 8 6 7 9 9 8 7 7 7 7 6 6 7 7 6 5 4 3 2 1 0 1 1 2 2 2 2 3 2 1 4 6 8 8 8 8 7 8 9 8 9 11 11 11 12 13 12 9 9 9 9 10 11 11 12 13 13 14 14 15 15 16 18 19 20 21 21 21 21 22 23 23 25 27 28 29 30 31 30 30 29 26 25 25
9 9 8 7 10 9 8 7 8 7 7 6 6 5 7 8 8 6 4 3 3 3 3 3 3 3 2 2 2 2 3 4 6 7 8 8 7 7 7 8 9 9 10 10 11 12 12 10 10 10 10 10 11 11 11 12 13 14 14 14 14 15 16 18 19 20 20 21 21 21 21 23 25 26 26 27 28 29 29 28 27 26 26 24 23
6 7 8 8 10 9 7 6 7 6 5 5 4 3 3 6 8 8 6 5 4 4 4 4 3 3 3 3 3 3 4 5 6 7 8 8 8 7 7 8 10 10 9 9 11 10 9 9 9 10 10 10 10 11 12 12 12 13 13 14 14 14 15 18 19 18 18 21 26 26 24 23 23 24 24 24 25 25 26 25 24 24 23 20 17
5 5 4 5 7 7 5 5 5 4 3 4 3 3 2 2 4 6 7 7 5 4 5 5 4 4 3 3 3 4 5 5 6 7 7 7 8 7 6 8 10 10 9 9 10 9 9 9 10 10 10 10 10 11 11 11 11 11 12 13 14 14 14 17 17 16 17 22 26 25 22 21 21 21 20 21 22 22 22 23 23 22 21 19 17
6 4 3 5 4 4 3 3 3 2 2 2 2 2 2 1 1 3 5 7 7 6 5 4 4 4 3 3 4 5 5 6 6 5 6 7 7 7 8 10 11 11 11 10 8 9 9 9 9 10 10 10 11 11 11 11 11 11 11 12 12 12 12 14 15 16 20 23 22 19 17 17 18 18 17 18 19 19 19 20 20 20 21 21 20
5 5 4 6 5 3 2 2 2 2 2 2 2 2 2 2 2 2 2 3 4 6 6 5 5 5 5 5 5 6 6 6 6 5 5 6 6 8 10 10 9 8 9 8 7 8 8 8 9 9 10 10 10 10 10 10 11 11 11 12 13 13 15 18 19 21 22 22 20 17 15 14 14 14 14 15 15 15 16 17 18 19 19 17 15
3 4 4 4 3 2 1 1 1 0 2 2 2 2 2 2 1 0 1 1 0 1 3 5 8 10 10 7 6 7 6 6 6 6 6 5 6 8 10 8 6 6 6 6 5 6 7 8 8 9 10 10 10 11 10 10 9 10 11 14 16 17 18 19 19 20 20 19 17 15 15 13 12 11 12 13 13 14 16 17 18 17 16 14 13
2 3 4 2 1 1 1 1 1 2 4 4 1 1 1 2 1 1 1 2 0 1 1 2 5 8 9 8 6 6 7 7 7 7 6 5 7 8 8 6 5 5 5 5 5 5 6 7 8 9 10 10 10 10 10 9 8 9 12 14 15 15 14 13 13 13 13 13 11 10 10 10 10 12 13 14 15 15 15 15 14 13 11 11 9
2 6 7 4 5 2 1 1 1 4 5 3 1 0 0 1 1 0 1 3 2 2 2 2 3 4 4 5 5 6 8 10 10 10 8 7 8 8 6 4 3 2 3 4 5 4 4 6 7 8 9 9 9 9 10 9 9 10 11 10 10 9 8 9 10 10 10 10 9 7 6 6 9 11 12 13 13 12 11 9 8 6 6 6 6
4 8 11 4 6 5 1 1 2 2 1 0 1 0 0 1 1 0 1 2 2 2 2 2 3 4 3 3 4 6 9 9 9 9 9 8 7 6 6 5 4 4 4 4 4 4 4 5 6 7 8 8 8 9 9 8 9 9 8 7 7 6 6 8 10 11 11 10 9 6 3 3 6 7 8 8 8 7 6 5 4 4 5 6 6
3 7 11 6 2 4 2 2 2 2 1 1 1 1 1 1 1 0 0 0 1 2 2 2 3 3 3 4 5 8 9 8 7 7 8 7 6 6 6 6 6 6 5 5 5 5 6 6 6 6 6 6 7 8 8 8 9 9 9 8 8 7 6 7 8 8 9 10 9 8 8 8 7 7 7 7 6 5 5 6 7 6 5 4 3
3 6 9 9 5 0 2 3 3 4 3 2 1 2 1 1 1 0 0 1 1 1 2 3 4 4 5 5 7 10 9 6 5 6 7 7 6 6 6 6 7 7 7 6 6 6 6 6 5 5 6 6 6 6 7 8 8 8 8 7 7 7 7 6 7 7 8 9 9 8 9 10 10 10 10 9 9 8 8 9 8 5 4 4 3
4 4 5 6 7 4 2 3 5 5 4 2 2 2 2 1 1 1 1 2 2 3 3 4 4 5 5 7 10 11 9 6 5 6 6 6 6 7 7 6 7 8 9 8 7 7 7 7 6 6 6 6 7 7 7 8 7 6 5 5 4 5 5 5 5 6 7 8 8 8 9 11 12 12 12 10 9 9 8 8 6 4 4 4 4
3 4 3 4 5 5 3 3 4 5 4 4 3 2 1 1 2 2 2 3 3 4 4 3 3 2 5 6 8 8 7 5 5 5 5 5 5 6 7 8 8 10 11 11 10 9 8 8 9 9 8 8 9 8 7 7 6 4 4 3 2 2 3 3 4 5 7 8 8 9 10 11 10 10 8 7 7 7 6 5 5 5 4 4 4
3 4 4 4 5 4 2 2 3 5 6 6 4 2 1 1 2 3 3 4 4 4 3 3 3 3 4 6 6 6 5 4 4 4 4 5 5 6 7 8 9 11 11 12 11 11 9 9 9 9 9 9 8 7 7 6 6 5 5 5 4 3 3 4 5 5 6 8 9 10 11 11 10 9 8 8 8 7 5 4 4 5 5 5 4
3 3 4 4 4 3 3 2 2 4 4 3 2 1 1 2 3 3 4 4 4 4 3 3 3 4 4 4 4 5 5 5 4 4 4 5 5 5 5 7 9 10 11 11 11 11 10 9 8 7 7 7 6 5 5 5 5 5 5 5 6 5 4 4 4 4 6 8 8 8 9 9 7 7 8 9 7 6 6 6 5 5 5 6 6
3 3 4 4 3 3 3 2 1 2 1 1 1 1 1 2 3 3 4 5 4 3 3 3 3 3 4 4 4 5 5 5 5 6 6 6 6 6 7 7 9 10 10 9 9 9 9 9 8 7 6 6 4 4 3 3 3 4 4 4 5 5 5 4 3 3 4 6 7 6 7 7 6 6 8 8 5 4 5 5 5 4 5 5 6
4 4 4 4 4 3 2 2 2 1 2 2 1 1 2 3 3 4 4 5 4 4 3 2 2 3 3 3 3 4 5 5 5 6 7 7 8 8 9 9 9 10 10 9 8 8 7 7 7 6 6 5 4 3 3 2 2 3 4 4 4 5 4 3 3 2 3 5 5 5 6 7 6 6 7 7 6 6 6 5 4 5 5 4 5
4 4 4 4 4 4 3 3 3 2 1 3 2 2 3 4 4 4 4 4 4 4 3 3 3 4 4 4 4 4 4 4 4 5 5 6 7 8 8 8 7 8 8 7 6 6 5 5 5 4 4 3 3 2 2 2 3 3 4 4 5 5 5 4 3 3 4 5 5 5 5 5 3 3 4 5 6 6 6 5 5 5 5 5 5
5 5 5 5 5 5 4 4 4 2 2 3 2 2 4 4 4 4 4 4 4 4 4 4 4 4 4 4 4 4 4 4 4 5 4 4 6 7 7 7 7 6 6 5 5 4 4 4 4 4 4 4 4 4 5 5 5 5 5 5 5 5 4 3 3 3 5 6 4 3 3 3 3 3 4 5 6 6 6 6 6 6 6 6 6
7 7 6 6 6 6 5 5 4 4 3 3 3 4 5 5 4 5 5 5 5 5 4 4 4 4 4 4 3 4 4 3 4 4 3 2 4 6 6 6 6 6 5 4 4 4 4 4 4 4 4 5 6 6 6 6 6 6 5 5 4 3 3 2 2 2 3 4 3 1 1 2 3 4 4 4 5 5 5 5 6 6 6 6 7
8 8 8 7 7 7 7 6 5 5 4 4 4 5 5 5 5 5 6 5 5 5 4 4 4 4 3 3 3 3 3 3 3 3 1 1 3 5 6 6 5 5 5 4 4 4 4 4 4 4 4 5 6 7 8 8 7 7 6 5 4 3 2 2 3 3 5 6 5 3 2 3 4 3 2 2 3 5 5 4 5 5 5 5 6
Wind_Direction
177 178 178 180 182 178 175 178 182 182 181 177 175 178 175 167 167 169 164 166 168 162 157 161 162 160 161 166 173 184 188 182 182 185 184 182 178 186 200 194 194 209 207 210 218 214 223 220 203 205 206 193 186 187 185 177 176 177 172 173 186 183 189 182 152 151 166 166 165 171 174 176 172 173 184 194 201 188 187 206 214 211 230 249 247
176 176 177 179 180 177 174 176 177 177 178 177 177 177 171 166 170 166 161 165 164 157 159 162 161 164 167 168 175 182 184 189 185 171 174 178 169 172 182 177 186 202 204 208 208 206 215 211 203 207 199 189 184 182 184 181 174 173 172 175 180 179 187 173 149 150 166 169 169 174 177 179 178 182 191 202 209 195 192 208 225 230 233 242 251
175 176 177 176 176 175 173 172 172 174 176 175 177 175 168 167 169 164 162 163 158 158 164 162 160 165 170 172 176 178 179 187 183 173 184 186 172 172 172 171 186 188 185 207 211 208 207 202 205 207 192 186 190 185 185 186 177 169 171 177 171 175 189 172 153 156 168 173 174 177 181 183 183 189 198 208 223 220 202 208 225 241 231 218 237
177 177 174 170 173 175 172 171 170 170 172 174 176 172 167 168 166 161 161 159 158 165 166 161 161 166 171 174 176 175 178 186 181 176 186 183 178 186 179 173 181 177 180 205 211 214 210 202 204 202 190 189 193 188 188 185 175 165 168 175 169 174 189 175 162 164 169 175 181 182 187 189 188 194 199 206 223 232 214 209 216 228 229 214 228
179 178 172 170 175 176 174 171 168 168 171 172 172 170 167 166 164 161 161 159 161 165 161 157 160 162 162 168 174 173 176 184 180 180 190 184 178 184 183 180 179 179 194 204 206 215 208 202 207 200 191 194 191 184 181 174 168 169 174 176 171 174 182 177 168 169 170 177 186 188 192 194 194 201 203 204 213 219 216 216 217 223 226 218 228
181 177 174 174 174 176 177 173 164 166 171 169 169 172 168 163 164 161 160 166 165 158 153 152 153 156 158 161 167 170 174 183 182 185 195 190 182 183 183 184 184 188 200 199 211 217 196 192 211 205 192 193 185 176 175 172 172 179 181 180 178 175 177 181 179 178 177 180 189 194 197 200 200 205 208 207 210 213 215 218 221 224 223 222 234
181 176 175 174 172 175 180 176 167 167 173 172 171 172 169 167 166 161 163 173 164 149 150 151 148 153 157 157 163 166 165 174 181 188 200 199 194 191 186 185 185 188 193 188 203 216 191 186 210 210 193 186 178 172 174 175 176 181 181 184 186 181 181 186 189 194 194 192 196 201 204 206 207 210 213 213 213 216 219 220 223 227 226 225 234
175 174 173 174 175 175 174 170 168 168 172 177 178 174 172 169 162 158 163 164 153 149 151 148 145 152 157 157 158 156 158 177 185 182 186 195 199 198 194 192 192 193 194 192 191 202 191 183 192 206 196 176 170 174 179 180 180 182 183 184 186 186 189 195 200 204 206 207 209 212 212 211 213 216 218 217 216 220 224 225 228 231 232 232 230
168 171 173 175 177 178 178 176 177 179 178 179 180 177 172 165 159 163 165 153 146 149 147 145 147 150 154 153 153 164 181 194 190 177 173 176 183 200 204 198 202 207 203 202 201 194 195 191 191 201 199 181 177 179 180 183 183 181 186 192 192 192 194 201 209 212 214 218 220 220 220 218 218 220 221 221 222 225 227 232 238 240 240 242 240
159 163 169 170 165 169 176 179 182 186 184 177 175 173 167 160 157 158 155 147 144 143 139 140 141 138 147 160 176 194 202 203 195 184 177 169 163 182 205 203 206 212 208 210 211 196 193 208 204 200 197 191 189 185 184 188 188 184 190 199 200 201 206 210 215 217 218 221 224 225 226 227 225 222 221 223 227 230 233 238 245 247 247 249 252
153 157 164 167 162 164 170 167 165 170 171 165 162 159 155 155 158 161 161 159 154 148 143 142 145 153 169 189 208 210 208 206 200 195 187 175 162 159 179 203 209 212 209 211 214 203 196 213 213 201 197 196 193 190 191 194 195 193 195 198 198 199 204 211 217 223 226 227 229 230 230 232 232 227 227 231 234 235 236 242 247 249 249 249 251
140 147 154 162 165 170 175 170 162 162 163 163 164 166 166 166 167 170 168 162 155 152 153 158 168 181 197 212 206 193 189 190 191 193 189 186 180 164 154 195 213 211 212 212 211 207 202 209 212 201 197 200 198 200 206 210 212 211 210 212 212 206 204 207 211 216 224 231 235 236 235 237 236 232 234 239 240 238 239 244 247 247 248 251 254
120 127 133 140 153 164 172 173 172 172 172 172 175 178 177 171 165 163 163 165 172 179 184 194 203 208 214 209 193 183 178 169 163 176 178 184 192 175 152 183 217 210 212 213 211 209 206 211 217 210 208 213 210 211 223 231 232 230 227 228 228 224 221 219 217 215 216 223 231 236 241 245 244 241 240 242 242 244 246 246 247 249 251 254 256
124 123 124 128 138 149 157 166 176 183 183 183 183 182 180 174 170 174 186 202 206 206 211 219 217 213 215 211 202 193 184 170 163 171 169 170 185 177 162 182 210 206 207 208 206 206 206 210 217 219 224 230 226 218 223 241 249 246 240 239 239 239 239 236 235 234 233 232 235 239 243 246 246 247 247 246 245 245 246 247 249 252 251 247 248
128 127 128 131 134 136 140 157 173 180 181 184 185 184 182 180 185 202 225 216 195 195 203 209 208 208 211 212 207 201 195 188 175 169 172 172 175 182 186 194 203 209 215 214 211 213 213 209 209 214 225 235 237 230 221 228 247 251 248 248 248 249 251 250 249 250 251 251 252 252 253 251 248 246 245 245 245 244 243 245 247 249 248 247 250
123 126 129 131 132 134 141 156 168 173 176 180 181 181 182 184 191 205 207 184 179 185 190 194 198 200 200 197 195 196 199 205 204 196 197 193 184 191 202 203 205 215 221 223 222 227 231 224 221 230 239 239 243 244 235 230 235 244 248 251 251 251 253 256 258 259 261 261 261 259 258 257 255 254 251 247 249 251 252 252 253 256 257 257 259
118 119 120 122 127 133 143 155 165 174 179 180 179 179 183 183 178 176 177 177 179 181 183 189 192 192 193 191 187 190 196 202 209 212 213 210 208 211 216 226 228 221 222 230 226 224 232 230 225 231 239 240 242 248 250 246 245 248 252 254 255 254 254 257 263 268 268 265 262 260 260 260 260 258 256 252 253 256 258 255 255 258 259 259 262
109 111 113 117 123 127 134 145 154 163 170 171 170 169 170 167 161 163 173 179 180 180 182 188 188 185 187 192 193 198 205 208 214 220 222 222 224 220 209 229 252 229 230 253 250 242 246 245 240 239 242 246 249 253 257 257 254 254 255 257 258 260 262 264 267 269 268 264 262 260 259 259 261 263 263 261 259 259 258 257 255 254 254 258 263
105 110 114 119 123 124 125 131 135 140 145 149 149 150 154 158 161 165 173 180 180 178 183 195 196 185 186 203 210 212 219 226 229 233 234 233 238 233 217 207 226 228 227 245 258 260 264 263 258 254 253 254 256 258 260 260 259 258 258 259 260 261 262 261 261 263 264 262 262 262 261 261 262 263 265 265 263 261 260 261 259 254 255 259 258
106 113 119 123 127 127 127 128 130 133 139 142 142 144 151 159 164 167 171 175 175 173 179 198 203 197 204 224 229 224 225 233 237 244 247 246 253 256 241 227 239 248 248 252 257 268 279 276 270 266 264 261 260 261 263 263 263 262 261 262 264 264 262 259 258 260 264 265 266 268 269 267 264 262 262 262 261 260 260 261 262 259 258 257 253
110 114 118 121 124 124 124 125 127 128 132 135 135 137 141 144 147 147 147 149 157 166 171 176 186 204 221 232 243 248 250 251 250 251 256 257 259 265 262 254 255 258 257 258 257 256 272 278 272 267 267 267 264 264 265 266 266 266 266 265 265 266 266 266 265 265 267 268 269 269 269 269 268 266 265 264 263 262 259 258 259 260 258 253 251
108 111 115 118 118 118 119 121 125 128 130 133 135 135 137 140 144 147 151 159 174 187 202 215 221 235 246 252 259 260 257 259 262 260 259 260 261 264 267 266 262 260 258 259 257 249 245 254 258 260 264 268 269 268 267 266 266 266 265 265 265 265 265 266 267 266 267 269 271 271 270 269 268 266 266 266 264 261 258 255 254 255 255 254 253
99 102 104 104 105 108 111 114 118 122 124 126 128 131 135 136 139 147 146 137 157 194 203 227 244 266 281 284 287 283 274 270 271 272 271 271 269 268 269 269 268 267 265 264 262 257 250 251 256 261 266 270 272 273 273 272 270 269 268 267 266 266 266 267 268 269 268 268 269 269 268 265 264 263 262 261 256 251 251 254 254 252 251 251 250
85 89 93 95 95 97 98 102 109 114 116 118 117 119 122 112 103 121 122 106 93 91 110 134 151 131 138 180 303 302 293 287 282 279 278 277 275 275 275 274 272 273 272 271 270 267 264 264 268 271 273 274 275 275 275 275 275 274 273 272 271 270 270 270 271 271 272 271 270 269 267 264 265 267 264 260 254 247 246 250 252 251 250 248 245
73 75 82 90 95 97 97 97 102 109 115 118 116 116 113 98 83 84 92 96 104 102 101 113 119 126 142 134 125 272 296 301 296 287 283 283 283 281 279 278 276 275 274 272 269 268 270 272 274 276 276 276 276 276 275 276 276 275 275 275 274 274 273 273 273 273 274 274 274 274 272 271 272 273 270 265 259 251 247 252 259 262 261 256 253
59 57 59 66 75 85 92 96 98 102 107 108 111 114 102 77 62 66 65 58 64 72 69 77 86 87 96 106 115 290 332 332 303 296 300 304 300 295 293 290 286 283 280 278 276 275 276 277 279 280 280 280 280 279 278 277 277 278 279 278 278 278 279 278 278 277 278 279 279 279 278 276 273 272 272 271 267 261 258 260 266 268 265 262 261
51 48 44 45 52 58 65 71 74 78 83 87 95 105 101 88 75 91 113 112 99 83 69 69 86 87 67 70 72 38 71 168 268 301 321 325 315 311 310 307 305 306 303 299 299 302 302 301 300 299 300 303 305 305 303 301 301 303 301 295 294 294 290 282 279 278 277 277 277 277 277 277 274 271 270 271 271 269 266 265 268 272 271 267 265
58 59 52 46 49 53 55 56 57 58 58 53 52 62 72 72 58 46 136 168 170 153 132 137 176 150 101 66 87 93 122 251 277 310 330 331 325 324 323 322 322 322 318 316 318 320 320 321 323 324 323 325 326 323 322 321 320 316 310 300 294 294 288 282 284 287 286 281 277 275 272 272 272 271 270 271 272 271 267 264 270 278 277 269 263
55 65 75 72 63 56 56 61 60 57 52 37 35 43 43 32 32 30 12 321 228 207 202 221 215 189 172 180 169 162 216 274 310 334 338 336 338 338 336 339 340 338 337 339 340 342 348 353 350 339 329 323 320 317 315 313 308 301 299 298 296 293 289 284 283 286 287 284 284 283 280 275 267 263 266 272 276 274 268 266 271 275 270 260 254
36 35 55 81 78 58 47 54 57 57 60 49 33 38 44 41 42 39 24 24 43 205 188 147 151 163 169 171 159 162 289 334 351 350 346 347 346 344 346 349 351 351 350 350 355 6 13 9 347 328 322 320 320 319 318 317 315 311 309 309 305 300 295 291 289 290 289 284 281 282 284 281 275 271 271 273 273 271 269 268 270 268 259 250 244
32 27 25 56 78 65 41 41 49 46 51 52 35 27 30 26 27 34 35 36 53 70 85 96 99 104 105 94 80 54 16 10 6 360 1 1 355 352 354 349 347 351 355 3 16 21 13 353 334 329 329 325 323 322 321 318 317 314 312 310 307 305 302 298 298 301 302 296 291 290 287 282 278 276 274 271 269 267 267 267 265 259 250 242 235
44 37 19 28 57 61 42 38 47 43 39 43 38 32 19 3 3 19 42 61 78 89 95 100 101 95 89 78 56 39 24 15 8 5 7 6 0 357 352 346 347 351 2 20 27 19 357 342 342 342 336 329 326 322 317 312 312 314 314 311 310 309 306 300 297 295 294 292 292 294 290 283 279 279 277 273 269 266 264 261 253 244 235 227 222
35 30 29 31 40 45 42 38 41 40 35 34 31 38 50 2 345 358 17 32 50 77 92 97 96 86 77 69 47 28 14 5 1 359 357 360 2 3 3 6 8 14 30 38 25 3 348 348 350 346 341 339 334 325 318 314 311 311 313 313 312 311 309 309 306 296 285 285 288 289 285 279 279 282 282 278 271 264 257 249 237 224 214 204 195
5 6 107 119 77 41 40 43 44 49 43 41 40 34 33 44 24 351 350 359 9 17 28 55 77 74 53 33 20 10 2 357 355 356 357 1 11 29 37 29 18 17 27 31 13 350 344 347 347 346 344 340 333 328 326 324 318 315 314 312 310 309 305 302 296 286 283 289 293 292 283 275 278 284 284 277 270 259 248 237 222 207 200 196 190
7 9 57 84 70 47 44 52 56 57 45 54 68 55 32 25 30 21 360 358 5 2 350 347 6 20 17 12 7 3 1 359 1 10 15 16 37 57 52 35 16 5 8 9 358 346 343 340 342 344 341 335 332 328 324 322 322 321 316 306 297 294 293 293 292 290 292 297 298 291 283 281 285 287 280 268 257 244 231 218 205 195 190 187 183
22 6 3 15 27 34 72 56 26 299 171 139 100 61 47 36 12 31 35 8 360 30 360 337 339 346 350 356 6 7 6 9 15 18 14 18 47 56 44 27 14 5 358 349 342 345 344 337 338 342 338 335 334 327 320 321 324 318 308 299 294 293 295 297 301 302 303 304 301 290 281 279 277 266 251 238 226 216 209 201 193 188 182 173 170
39 23 359 336 295 352 14 42 36 80 121 125 99 22 30 32 60 174 334 330 277 115 61 342 335 345 348 347 353 6 13 16 18 17 15 29 47 44 31 20 17 13 357 339 338 354 355 343 341 343 337 334 335 332 328 331 329 315 303 301 303 307 310 312 315 315 315 319 317 302 284 268 247 231 222 212 201 196 195 191 186 185 183 174 168
340 334 328 277 210 198 4 278 348 49 73 80 38 157 170 6 19 215 322 359 39 61 35 10 357 351 340 325 334 11 25 20 14 13 14 26 39 33 19 12 10 357 345 339 340 352 355 344 342 344 339 337 341 340 336 335 330 320 314 315 321 331 343 351 356 358 360 2 358 340 308 259 223 208 200 193 183 175 173 174 175 180 175 156 138
311 319 328 297 191 178 98 273 271 337 23 252 244 130 54 354 12 47 360 21 32 31 32 15 339 320 319 331 357 38 42 27 18 19 18 21 31 29 16 11 2 350 345 339 332 338 347 345 347 350 347 350 355 351 345 344 344 344 352 360 0 4 15 24 30 34 37 41 44 44 58 149 170 166 159 156 153 149 150 151 136 117 116 122 132
305 316 334 347 174 195 250 288 269 275 283 242 246 299 330 336 11 31 109 103 38 37 56 28 338 330 3 15 32 61 60 34 19 27 26 22 26 28 22 18 9 357 347 334 326 334 341 339 341 346 349 359 8 5 7 14 15 16 24 28 26 31 40 49 60 70 74 75 77 80 90 104 117 124 127 123 113 104 95 84 80 84 95 110 129
309 302 320 345 10 352 248 275 272 254 248 258 266 269 289 317 341 299 209 141 91 93 94 66 41 45 60 65 73 76 67 42 29 37 33 24 26 28 26 22 13 4 358 347 339 341 343 342 346 351 355 6 16 21 30 38 33 27 30 39 48 60 66 70 80 86 82 78 76 73 73 77 80 80 76 69 64 66 66 65 65 66 70 71 65
319 306 305 335 355 349 280 275 277 259 248 256 267 258 267 280 257 194 173 155 138 137 128 103 76 55 54 77 89 85 69 50 45 46 39 32 29 30 32 30 21 17 18 16 9 6 3 3 4 4 7 20 30 36 43 47 42 34 36 46 63 78 82 84 91 92 85 79 75 73 72 72 69 66 63 59 58 60 63 64 62 56 58 63 56
309 315 302 302 313 310 281 268 274 259 235 225 236 260 276 241 211 174 160 154 142 137 135 123 108 60 23 42 67 74 67 58 53 47 44 44 39 35 38 41 38 35 34 34 32 27 19 15 17 18 23 35 44 44 43 45 46 45 41 38 45 72 95 109 115 113 104 94 83 74 72 69 61 58 67 83 85 74 69 75 74 59 53 57 53
283 302 300 295 299 298 287 269 260 245 230 221 221 233 242 201 186 164 154 150 140 134 132 115 98 79 46 36 45 54 58 60 59 51 45 42 39 39 43 47 49 48 44 41 38 34 28 27 29 31 36 46 54 57 58 57 56 57 56 55 56 62 89 118 122 118 108 93 76 61 57 54 47 42 47 58 63 56 48 60 68 59 52 51 44
290 296 297 306 312 306 298 285 246 237 233 220 205 210 202 176 166 156 148 144 139 133 128 109 86 81 75 64 62 61 57 55 59 60 56 47 39 36 41 47 50 50 47 44 41 37 35 35 38 40 44 51 59 69 73 67 61 59 59 61 64 66 72 85 95 103 99 84 65 49 41 38 36 42 46 45 44 45 41 42 47 48 47 48 38
283 291 294 299 304 305 306 294 230 223 230 190 180 208 203 164 157 153 147 146 148 144 132 117 102 92 84 78 73 72 69 63 53 50 56 64 59 46 40 44 46 45 44 46 46 44 42 42 40 39 43 49 55 65 70 65 58 51 45 42 46 51 56 63 70 75 70 60 49 39 33 29 31 46 48 36 25 32 40 40 45 49 46 47 42
262 282 294 286 279 286 285 248 232 252 250 223 208 199 185 168 157 153 153 153 154 151 143 131 122 110 101 95 87 79 78 74 58 43 42 49 54 51 46 45 47 44 39 37 39 42 42 41 41 39 40 44 48 51 52 48 35 29 26 22 22 23 25 35 49 47 39 36 33 32 34 32 30 35 36 30 30 40 42 39 46 48 40 37 42
253 266 280 274 267 267 254 246 266 286 230 206 212 193 179 172 160 157 162 157 149 151 151 141 133 125 114 108 98 87 80 77 69 56 40 32 36 43 44 42 45 48 42 34 32 33 28 24 23 19 14 15 12 359 348 345 343 345 347 346 346 352 359 3 7 27 50 54 42 27 25 32 35 35 41 47 49 49 46 47 51 51 43 38 38
253 255 263 266 264 258 246 249 267 266 198 200 212 190 176 173 168 169 170 160 154 159 157 144 138 135 128 119 106 92 85 75 66 68 61 30 18 29 36 36 36 40 37 29 21 13 4 360 359 353 347 349 349 342 335 331 322 316 316 316 316 323 340 352 1 43 72 73 56 21 16 35 38 33 43 55 56 55 57 58 53 49 47 45 40
249 247 250 255 253 248 244 243 244 233 220 222 210 186 181 182 178 174 172 167 165 165 157 145 143 139 129 123 110 92 88 84 69 67 69 25 2 12 22 26 27 26 24 21 13 4 359 1 4 3 5 9 8 5 1 355 345 336 330 327 325 331 356 28 47 79 98 99 96 63 54 70 60 49 50 59 58 54 57 57 49 44 45 45 39
244 242 243 246 244 241 238 236 234 232 227 219 205 191 189 188 183 179 180 176 171 169 161 150 144 139 131 129 122 107 102 99 87 75 56 342 356 11 12 12 14 15 11 8 3 358 359 6 13 17 17 16 17 19 16 13 12 10 7 8 14 17 25 54 72 89 101 98 83 55 48 66 63 44 29 44 48 41 37 39 41 38 35 34 34
Height
1482 1483 1487 1491 1494 1497 1501 1506 1510 1512 1514 1516 1518 1520 1522 1524 1526 1527 1528 1529 1530 1531 1532 1533 1534 1535 1536 1537 1538 1539 1539 1540 1541 1542 1542 1542 1543 1544 1544 1545 1547 1548 1548 1549 1549 1550 1550 1551 1551 1552 1553 1553 1554 1555 1556 1557 1559 1560 1562 1564 1565 1565 1566 1567 1568 1571 1574 1575 1576 1576 1576 1576 1577 1578 1579 1578 1579 1579 1580 1581 1581 1581 1582 1582 1582
1483 1484 1486 1490 1494 1497 1501 1504 1508 1511 1513 1516 1518 1520 1522 1524 1526 1527 1528 1529 1530 1532 1532 1533 1534 1535 1536 1537 1538 1539 1540 1540 1541 1542 1543 1543 1543 1544 1545 1546 1547 1548 1548 1549 1549 1550 1550 1550 1551 1552 1552 1553 1554 1555 1556 1557 1558 1560 1562 1564 1565 1564 1565 1566 1567 1570 1573 1574 1575 1576 1576 1576 1577 1578 1578 1578 1578 1579 1580 1580 1580 1580 1581 1581 1581
1485 1485 1487 1490 1494 1497 1500 1504 1507 1510 1513 1516 1518 1520 1522 1524 1526 1527 1528 1529 1531 1532 1532 1533 1534 1536 1537 1538 1539 1540 1541 1541 1541 1542 1543 1543 1544 1545 1545 1546 1547 1548 1548 1549 1549 1549 1549 1550 1551 1551 1551 1552 1554 1555 1555 1557 1558 1560 1562 1563 1564 1564 1565 1566 1566 1569 1572 1574 1574 1575 1575 1575 1576 1578 1578 1578 1577 1578 1579 1580 1580 1580 1580 1581 1581
1486 1487 1488 1491 1494 1498 1501 1504 1507 1510 1513 1516 1518 1520 1523 1524 1526 1527 1529 1530 1531 1532 1532 1533 1534 1536 1537 1538 1539 1540 1541 1541 1542 1542 1543 1543 1544 1545 1545 1546 1547 1547 1549 1549 1549 1549 1549 1550 1550 1550 1551 1552 1553 1554 1555 1556 1558 1559 1561 1563 1564 1564 1565 1566 1566 1568 1571 1572 1573 1574 1574 1574 1575 1577 1577 1577 1577 1577 1578 1579 1580 1580 1580 1581 1581
1486 1487 1489 1491 1494 1498 1501 1504 1507 1510 1514 1516 1518 1521 1523 1525 1526 1527 1529 1530 1531 1532 1532 1533 1534 1536 1537 1539 1539 1540 1541 1542 1542 1543 1543 1544 1544 1545 1545 1546 1547 1547 1548 1549 1549 1549 1549 1550 1550 1550 1551 1551 1553 1554 1555 1557 1558 1559 1561 1563 1564 1565 1565 1566 1566 1567 1569 1571 1572 1573 1573 1573 1574 1575 1576 1577 1577 1577 1577 1578 1579 1579 1580 1581 1580
1485 1486 1488 1491 1494 1498 1501 1503 1507 1511 1514 1517 1519 1522 1523 1525 1527 1528 1530 1531 1531 1532 1533 1534 1535 1536 1537 1539 1540 1541 1541 1542 1542 1543 1543 1543 1544 1545 1545 1546 1547 1547 1548 1549 1549 1549 1549 1549 1549 1549 1550 1551 1552 1554 1555 1557 1559 1560 1561 1562 1563 1564 1565 1566 1566 1567 1568 1569 1571 1572 1572 1573 1573 1574 1575 1576 1576 1576 1577 1577 1578 1578 1579 1579 1577
1485 1487 1490 1493 1497 1500 1502 1504 1507 1511 1514 1517 1520 1522 1524 1525 1527 1529 1530 1531 1531 1532 1533 1534 1535 1537 1538 1539 1540 1541 1541 1542 1543 1543 1544 1544 1544 1545 1545 1546 1547 1548 1548 1549 1549 1549 1548 1549 1549 1549 1550 1551 1552 1554 1555 1557 1558 1560 1561 1562 1563 1564 1565 1566 1566 1567 1568 1569 1570 1571 1571 1572 1572 1573 1573 1574 1575 1575 1575 1576 1576 1577 1577 1577 1576
1486 1489 1492 1495 1499 1501 1503 1505 1509 1512 1515 1518 1521 1522 1524 1526 1527 1529 1531 1531 1532 1533 1534 1534 1536 1537 1538 1539 1540 1540 1541 1541 1541 1542 1543 1544 1544 1545 1545 1546 1547 1548 1548 1549 1549 1549 1548 1549 1549 1550 1550 1551 1553 1554 1555 1557 1558 1559 1560 1561 1562 1563 1564 1565 1566 1567 1567 1568 1569 1569 1570 1570 1571 1571 1572 1573 1573 1573 1574 1574 1575 1575 1575 1575 1575
1488 1490 1493 1496 1499 1501 1503 1506 1510 1513 1516 1518 1521 1522 1524 1526 1528 1530 1531 1531 1532 1533 1534 1535 1536 1537 1538 1538 1539 1539 1539 1540 1540 1541 1542 1543 1544 1545 1545 1546 1547 1548 1549 1549 1549 1549 1549 1548 1548 1549 1550 1551 1552 1553 1555 1556 1557 1558 1559 1560 1561 1562 1563 1564 1565 1565 1566 1567 1567 1568 1568 1569 1569 1570 1570 1571 1571 1572 1573 1573 1573 1574 1574 1574 1573
1491 1493 1495 1497 1500 1502 1504 1508 1511 1515 1518 1519 1521 1522 1524 1526 1528 1530 1531 1531 1532 1533 1534 1535 1536 1537 1538 1538 1538 1538 1538 1539 1540 1541 1541 1542 1543 1544 1545 1546 1547 1548 1549 1549 1549 1550 1550 1549 1548 1549 1550 1551 1552 1553 1554 1555 1556 1557 1558 1559 1560 1561 1562 1563 1563 1564 1565 1565 1566 1566 1566 1567 1567 1568 1568 1569 1570 1571 1571 1571 1571 1572 1572 1572 1571
1492 1494 1496 1498 1501 1503 1505 1509 1512 1515 1518 1520 1521 1523 1524 1526 1527 1529 1529 1530 1531 1532 1533 1535 1536 1537 1537 1537 1537 1538 1538 1539 1540 1541 1541 1542 1542 1543 1544 1546 1547 1548 1549 1549 1550 1550 1550 1549 1549 1549 1550 1551 1552 1553 1554 1555 1556 1557 1558 1558 1559 1560 1561 1561 1562 1563 1563 1564 1564 1564 1565 1565 1566 1566 1567 1567 1568 1568 1569 1569 1569 1569 1569 1569 1569
1491 1494 1496 1499 1501 1503 1506 1509 1511 1513 1516 1517 1519 1521 1522 1524 1525 1527 1528 1529 1530 1531 1532 1534 1535 1535 1536 1537 1537 1538 1538 1539 1540 1541 1541 1542 1542 1543 1544 1546 1547 1548 1548 1549 1549 1550 1550 1550 1549 1550 1550 1551 1552 1553 1554 1555 1556 1556 1557 1557 1558 1558 1559 1560 1560 1561 1562 1562 1562 1563 1563 1564 1564 1565 1565 1566 1566 1566 1566 1566 1566 1567 1567 1566 1566
1491 1494 1497 1500 1502 1504 1506 1509 1510 1511 1513 1515 1516 1518 1520 1522 1525 1527 1529 1529 1530 1531 1532 1533 1534 1535 1536 1537 1537 1538 1539 1539 1540 1541 1541 1542 1543 1543 1544 1546 1547 1548 1548 1549 1549 1549 1550 1550 1550 1550 1551 1551 1552 1553 1554 1554 1555 1555 1556 1556 1557 1557 1558 1558 1559 1559 1560 1560 1560 1561 1562 1562 1563 1563 1563 1564 1564 1564 1564 1564 1564 1564 1564 1564 1563
1492 1494 1497 1501 1503 1505 1507 1508 1509 1511 1513 1514 1516 1518 1520 1523 1526 1528 1529 1529 1529 1530 1531 1532 1533 1535 1536 1537 1538 1538 1539 1539 1540 1541 1541 1542 1543 1543 1544 1545 1547 1547 1548 1548 1549 1549 1549 1550 1550 1551 1551 1551 1552 1553 1553 1554 1554 1554 1554 1555 1555 1556 1556 1556 1557 1557 1558 1558 1559 1559 1560 1560 1561 1561 1561 1561 1561 1562 1561 1561 1561 1561 1561 1560 1559
1493 1495 1499 1502 1503 1505 1506 1507 1509 1511 1513 1514 1516 1518 1520 1523 1526 1528 1528 1528 1529 1530 1531 1532 1533 1535 1536 1537 1538 1539 1539 1540 1541 1541 1542 1543 1543 1544 1545 1545 1546 1547 1547 1547 1547 1548 1548 1549 1549 1550 1551 1551 1551 1552 1553 1553 1553 1553 1553 1553 1554 1554 1554 1554 1555 1555 1556 1556 1557 1557 1557 1558 1558 1558 1559 1558 1558 1558 1558 1558 1558 1557 1557 1556 1556
1496 1498 1500 1501 1503 1504 1505 1506 1508 1510 1512 1514 1516 1518 1521 1523 1525 1527 1528 1528 1529 1530 1531 1532 1533 1534 1535 1536 1538 1538 1539 1540 1541 1542 1543 1544 1544 1544 1545 1545 1546 1547 1547 1547 1547 1547 1548 1548 1549 1550 1550 1550 1550 1550 1551 1551 1551 1552 1552 1552 1553 1553 1553 1553 1553 1553 1554 1554 1554 1555 1555 1555 1555 1555 1556 1555 1555 1555 1555 1555 1554 1554 1553 1553 1553
1498 1499 1500 1502 1503 1504 1505 1507 1509 1510 1513 1515 1517 1519 1522 1523 1525 1526 1527 1528 1529 1530 1531 1532 1533 1534 1535 1536 1537 1538 1539 1540 1541 1541 1542 1543 1544 1544 1545 1545 1546 1546 1546 1546 1546 1547 1547 1547 1548 1549 1548 1548 1548 1548 1549 1550 1550 1550 1551 1551 1551 1551 1551 1552 1551 1551 1551 1552 1552 1552 1552 1552 1552 1552 1553 1553 1552 1552 1552 1551 1551 1550 1549 1549 1549
1500 1501 1502 1504 1505 1506 1507 1509 1510 1512 1514 1516 1518 1520 1523 1524 1525 1526 1527 1529 1530 1530 1531 1532 1532 1533 1535 1536 1537 1538 1539 1539 1540 1541 1541 1542 1543 1543 1544 1545 1545 1545 1545 1546 1546 1546 1545 1545 1546 1546 1546 1547 1547 1547 1548 1549 1549 1549 1549 1549 1549 1549 1549 1550 1549 1548 1547 1548 1548 1548 1548 1549 1549 1549 1549 1549 1549 1549 1548 1547 1548 1547 1545 1544 1544
1502 1503 1504 1506 1507 1508 1509 1510 1512 1514 1516 1517 1519 1521 1523 1525 1526 1527 1528 1529 1530 1531 1532 1532 1533 1533 1535 1536 1537 1537 1538 1539 1539 1540 1540 1541 1542 1542 1543 1543 1543 1544 1544 1545 1545 1545 1544 1544 1544 1545 1545 1546 1546 1546 1546 1547 1547 1547 1547 1546 1547 1547 1547 1547 1546 1544 1543 1544 1544 1544 1544 1544 1545 1544 1545 1545 1545 1545 1543 1543 1544 1542 1540 1540 1541
1505 1506 1507 1508 1509 1510 1511 1512 1514 1516 1518 1519 1520 1522 1524 1525 1526 1527 1528 1529 1530 1531 1532 1533 1533 1534 1535 1536 1536 1537 1538 1538 1539 1539 1539 1540 1540 1540 1541 1541 1541 1542 1543 1543 1544 1545 1544 1542 1542 1543 1543 1543 1544 1544 1544 1544 1544 1544 1544 1543 1543 1543 1542 1542 1542 1541 1540 1540 1540 1540 1540 1540 1540 1539 1539 1539 1539 1539 1539 1539 1538 1537 1537 1537 1537
1508 1509 1510 1511 1511 1512 1513 1514 1516 1517 1519 1520 1522 1523 1524 1525 1526 1527 1528 1529 1530 1531 1532 1532 1533 1534 1535 1535 1536 1536 1537 1537 1538 1538 1538 1539 1539 1539 1539 1540 1540 1541 1541 1541 1542 1543 1543 1541 1539 1540 1540 1540 1540 1541 1541 1541 1540 1540 1540 1540 1539 1539 1538 1537 1537 1537 1536 1535 1535 1536 1536 1536 1535 1534 1534 1533 1533 1532 1533 1533 1533 1533 1533 1533 1533
1511 1511 1512 1513 1513 1514 1515 1516 1517 1518 1520 1521 1522 1524 1525 1526 1527 1527 1528 1529 1530 1531 1531 1532 1533 1533 1534 1534 1534 1535 1535 1536 1536 1536 1537 1537 1537 1537 1537 1538 1538 1538 1539 1539 1539 1540 1541 1539 1536 1537 1537 1537 1537 1537 1537 1537 1537 1536 1536 1536 1535 1535 1533 1532 1532 1532 1532 1531 1531 1531 1531 1531 1530 1530 1529 1528 1527 1526 1526 1527 1528 1528 1528 1528 1528
1513 1513 1514 1515 1515 1516 1517 1518 1519 1520 1521 1522 1523 1524 1525 1526 1527 1528 1529 1530 1531 1531 1532 1532 1533 1533 1534 1534 1533 1533 1533 1534 1534 1534 1535 1535 1535 1535 1535 1535 1535 1535 1536 1536 1536 1536 1536 1535 1533 1533 1534 1534 1534 1533 1533 1533 1533 1532 1532 1532 1532 1531 1530 1528 1528 1528 1527 1527 1527 1527 1527 1526 1525 1525 1525 1524 1523 1523 1522 1522 1523 1523 1522 1523 1523
1515 1515 1516 1516 1517 1518 1519 1520 1520 1521 1522 1523 1524 1525 1526 1527 1528 1529 1529 1531 1532 1532 1533 1533 1534 1534 1535 1534 1534 1533 1532 1532 1532 1533 1533 1533 1533 1533 1533 1533 1533 1533 1533 1533 1533 1533 1532 1531 1531 1531 1531 1531 1531 1530 1529 1529 1528 1528 1528 1527 1527 1526 1525 1525 1524 1523 1523 1522 1522 1522 1522 1523 1522 1522 1521 1520 1520 1520 1519 1517 1518 1519 1518 1518 1518
1517 1517 1518 1518 1519 1520 1521 1521 1522 1522 1523 1524 1525 1526 1527 1528 1529 1530 1530 1531 1532 1533 1533 1534 1534 1534 1534 1535 1534 1533 1532 1531 1531 1531 1531 1531 1531 1531 1532 1531 1531 1531 1531 1531 1530 1530 1530 1529 1529 1529 1528 1528 1527 1527 1526 1525 1524 1524 1524 1524 1523 1522 1521 1521 1520 1519 1518 1518 1518 1518 1518 1519 1520 1518 1516 1516 1517 1517 1516 1515 1515 1516 1516 1516 1516
1518 1519 1520 1520 1521 1521 1522 1522 1523 1523 1524 1525 1525 1526 1527 1528 1530 1530 1531 1532 1532 1533 1533 1533 1533 1533 1533 1534 1533 1533 1533 1532 1530 1529 1529 1529 1529 1529 1529 1530 1529 1529 1529 1528 1528 1527 1527 1527 1527 1526 1525 1525 1524 1524 1523 1523 1522 1521 1521 1520 1520 1519 1518 1518 1517 1516 1515 1514 1514 1514 1514 1515 1516 1514 1512 1512 1513 1513 1513 1512 1512 1512 1513 1514 1514
1520 1521 1521 1521 1522 1522 1523 1523 1523 1524 1524 1525 1526 1526 1527 1528 1529 1529 1530 1530 1531 1532 1532 1532 1532 1532 1533 1533 1533 1533 1533 1531 1529 1529 1528 1528 1528 1528 1527 1527 1527 1527 1527 1526 1525 1524 1524 1524 1523 1523 1522 1521 1521 1520 1520 1519 1519 1518 1518 1518 1518 1517 1517 1516 1515 1514 1513 1512 1511 1511 1511 1512 1511 1509 1508 1509 1508 1508 1509 1509 1508 1508 1509 1510 1510
1522 1522 1523 1523 1523 1523 1524 1524 1524 1525 1525 1525 1526 1527 1527 1528 1528 1528 1528 1529 1529 1530 1530 1530 1530 1531 1531 1531 1532 1533 1532 1530 1528 1528 1528 1527 1527 1527 1526 1526 1526 1526 1525 1525 1524 1523 1522 1522 1521 1521 1521 1520 1520 1519 1519 1518 1518 1517 1517 1517 1517 1516 1516 1515 1513 1512 1511 1509 1508 1507 1507 1508 1508 1507 1506 1505 1505 1505 1505 1506 1506 1505 1506 1506 1506
1525 1524 1524 1524 1525 1525 1526 1526 1526 1526 1526 1527 1528 1528 1528 1528 1528 1528 1529 1529 1529 1529 1529 1529 1529 1529 1529 1529 1529 1530 1529 1528 1527 1527 1526 1526 1526 1526 1525 1525 1525 1525 1525 1524 1524 1523 1521 1521 1521 1522 1521 1521 1521 1520 1519 1518 1517 1517 1516 1515 1515 1514 1514 1513 1512 1510 1509 1507 1506 1505 1504 1504 1505 1505 1503 1503 1503 1503 1503 1503 1503 1503 1503 1503 1503
1527 1526 1526 1526 1527 1527 1527 1528 1528 1528 1528 1529 1529 1529 1529 1529 1529 1529 1529 1529 1529 1529 1529 1529 1529 1529 1528 1528 1528 1528 1528 1527 1527 1526 1526 1525 1525 1525 1525 1525 1525 1525 1524 1524 1523 1522 1522 1522 1523 1522 1521 1521 1520 1519 1518 1517 1517 1516 1515 1514 1514 1513 1512 1511 1509 1508 1506 1505 1503 1503 1502 1502 1501 1501 1501 1501 1501 1500 1500 1500 1500 1500 1500 1500 1500
1529 1529 1528 1528 1528 1528 1529 1529 1529 1530 1530 1531 1531 1531 1531 1530 1530 1530 1530 1530 1530 1530 1530 1530 1529 1529 1529 1528 1528 1528 1528 1527 1527 1527 1526 1525 1525 1525 1525 1525 1525 1525 1524 1524 1523 1523 1523 1523 1523 1522 1521 1520 1519 1519 1518 1517 1516 1516 1515 1514 1513 1513 1511 1510 1508 1506 1504 1502 1501 1501 1500 1500 1499 1499 1498 1498 1497 1497 1497 1497 1497 1497 1497 1498 1498
1531 1531 1531 1530 1530 1530 1531 1531 1531 1532 1532 1532 1532 1533 1533 1532 1532 1532 1531 1531 1531 1531 1531 1530 1530 1530 1529 1529 1529 1528 1528 1528 1527 1527 1526 1525 1525 1525 1525 1524 1524 1524 1524 1524 1523 1524 1524 1524 1523 1522 1521 1520 1519 1518 1517 1516 1516 1515 1514 1513 1512 1512 1511 1509 1507 1505 1503 1501 1499 1499 1498 1497 1496 1496 1496 1495 1494 1494 1494 1494 1494 1495 1495 1497 1497
1532 1532 1532 1532 1532 1533 1533 1533 1533 1533 1533 1533 1533 1534 1534 1534 1534 1533 1533 1533 1533 1532 1532 1531 1531 1530 1530 1530 1529 1529 1528 1528 1527 1526 1526 1525 1525 1525 1524 1524 1524 1524 1524 1524 1524 1524 1524 1523 1522 1522 1521 1520 1519 1518 1516 1515 1514 1513 1513 1512 1511 1511 1510 1507 1505 1503 1501 1499 1498 1497 1496 1495 1494 1494 1493 1493 1492 1492 1492 1492 1492 1493 1494 1495 1496
1533 1532 1532 1533 1533 1534 1534 1534 1534 1534 1535 1534 1534 1534 1534 1534 1534 1534 1534 1534 1533 1533 1532 1532 1532 1531 1531 1530 1530 1529 1528 1528 1527 1526 1526 1525 1525 1525 1525 1524 1524 1524 1524 1524 1524 1524 1524 1523 1522 1522 1521 1520 1518 1517 1515 1514 1513 1512 1511 1510 1509 1509 1507 1505 1502 1500 1499 1498 1497 1495 1494 1494 1493 1492 1492 1491 1491 1490 1491 1491 1491 1492 1494 1495 1496
1534 1533 1533 1533 1534 1534 1535 1535 1535 1535 1535 1535 1535 1535 1535 1534 1535 1535 1535 1534 1534 1534 1533 1532 1532 1531 1531 1530 1529 1529 1528 1527 1527 1526 1526 1525 1525 1525 1525 1525 1525 1525 1525 1525 1525 1524 1524 1523 1522 1521 1520 1519 1518 1516 1515 1513 1512 1511 1510 1508 1507 1506 1505 1503 1501 1500 1498 1497 1496 1494 1493 1492 1491 1491 1491 1491 1490 1490 1491 1491 1492 1493 1495 1496 1497
1535 1535 1535 1535 1535 1535 1535 1535 1535 1535 1535 1535 1535 1535 1535 1535 1535 1535 1535 1535 1535 1535 1534 1533 1532 1531 1531 1530 1529 1529 1528 1527 1527 1526 1526 1525 1525 1525 1526 1526 1526 1526 1525 1525 1524 1524 1523 1522 1522 1521 1520 1518 1517 1515 1513 1512 1511 1510 1508 1506 1505 1504 1503 1501 1500 1499 1497 1495 1494 1493 1492 1491 1490 1490 1490 1490 1491 1491 1491 1492 1493 1494 1495 1496 1497
1536 1536 1536 1535 1535 1535 1535 1535 1535 1535 1534 1534 1535 1536 1536 1536 1535 1535 1535 1535 1534 1534 1534 1534 1533 1533 1532 1530 1529 1529 1528 1527 1527 1526 1525 1525 1525 1526 1526 1526 1525 1525 1524 1523 1523 1522 1522 1522 1521 1520 1519 1518 1516 1514 1512 1510 1509 1508 1506 1505 1504 1503 1501 1500 1499 1497 1496 1495 1493 1492 1491 1491 1490 1489 1489 1490 1491 1491 1492 1493 1494 1495 1496 1497 1498
1535 1535 1535 1535 1535 1535 1535 1535 1535 1535 1534 1535 1535 1536 1536 1536 1535 1535 1535 1534 1534 1534 1534 1534 1534 1533 1532 1531 1530 1529 1529 1528 1527 1526 1526 1525 1525 1525 1525 1524 1524 1523 1523 1522 1521 1521 1521 1521 1520 1519 1518 1516 1514 1513 1511 1509 1508 1506 1505 1504 1503 1502 1501 1500 1499 1497 1496 1495 1494 1493 1492 1492 1491 1491 1491 1491 1492 1493 1494 1495 1496 1497 1498 1498 1499
1535 1534 1534 1534 1534 1534 1535 1535 1535 1535 1535 1535 1535 1536 1536 1535 1535 1535 1535 1535 1535 1534 1535 1534 1533 1532 1530 1530 1529 1529 1530 1530 1529 1528 1527 1526 1525 1525 1524 1524 1523 1522 1522 1521 1521 1520 1520 1519 1519 1518 1516 1515 1513 1512 1510 1508 1507 1506 1505 1504 1503 1502 1501 1500 1499 1499 1498 1497 1496 1495 1495 1494 1494 1494 1494 1494 1494 1495 1495 1496 1497 1498 1499 1500 1501
1535 1534 1534 1534 1534 1534 1535 1535 1535 1535 1535 1535 1535 1535 1535 1535 1535 1535 1535 1535 1535 1535 1534 1534 1532 1530 1530 1530 1530 1530 1531 1531 1530 1529 1528 1526 1525 1525 1524 1524 1523 1522 1521 1521 1520 1519 1519 1518 1517 1516 1515 1514 1513 1511 1510 1509 1508 1507 1506 1505 1504 1504 1503 1502 1501 1501 1500 1499 1499 1498 1498 1497 1496 1496 1496 1496 1496 1496 1497 1497 1498 1499 1501 1501 1501
1536 1535 1534 1533 1533 1534 1534 1534 1534 1534 1534 1535 1535 1535 1535 1535 1535 1535 1535 1535 1535 1535 1534 1533 1532 1531 1531 1531 1531 1531 1531 1531 1531 1530 1529 1527 1526 1525 1525 1524 1523 1522 1521 1520 1519 1519 1518 1517 1516 1515 1514 1513 1512 1511 1510 1510 1510 1509 1508 1507 1506 1506 1505 1504 1503 1503 1502 1502 1501 1501 1500 1499 1499 1498 1498 1497 1497 1497 1498 1499 1500 1501 1502 1502 1502
1536 1535 1534 1534 1534 1534 1534 1534 1534 1534 1534 1534 1534 1534 1534 1534 1534 1534 1534 1534 1535 1535 1535 1534 1534 1533 1532 1532 1532 1531 1531 1531 1531 1530 1530 1529 1527 1526 1525 1524 1524 1522 1521 1520 1519 1519 1518 1517 1516 1515 1514 1513 1513 1512 1511 1511 1511 1510 1509 1508 1508 1507 1506 1506 1505 1505 1504 1504 1503 1503 1502 1502 1501 1500 1500 1500 1500 1500 1501 1501 1502 1503 1503 1503 1502
1536 1535 1535 1535 1535 1534 1534 1534 1534 1534 1533 1534 1534 1533 1533 1533 1533 1534 1534 1534 1534 1535 1535 1535 1535 1534 1533 1533 1532 1532 1533 1533 1532 1531 1530 1529 1528 1527 1526 1525 1524 1523 1521 1521 1520 1519 1518 1517 1516 1516 1515 1514 1513 1513 1513 1512 1512 1511 1510 1509 1509 1508 1507 1507 1506 1506 1505 1505 1505 1504 1504 1503 1503 1503 1502 1502 1502 1503 1503 1503 1503 1503 1503 1503 1503
1535 1535 1535 1535 1534 1533 1533 1534 1534 1533 1533 1533 1533 1533 1533 1533 1533 1533 1534 1534 1534 1534 1534 1534 1534 1534 1534 1534 1534 1534 1533 1533 1532 1532 1530 1529 1528 1527 1527 1525 1524 1523 1522 1521 1520 1520 1519 1518 1517 1517 1516 1515 1515 1514 1514 1513 1513 1512 1511 1511 1510 1509 1509 1508 1508 1507 1507 1506 1506 1506 1505 1505 1505 1505 1504 1504 1504 1504 1503 1503 1503 1503 1503 1503 1503
1535 1535 1535 1535 1534 1534 1533 1533 1533 1533 1532 1532 1532 1533 1532 1532 1533 1533 1533 1534 1534 1534 1534 1534 1534 1534 1535 1535 1535 1535 1534 1533 1532 1531 1530 1530 1529 1528 1527 1526 1525 1524 1523 1522 1521 1520 1520 1519 1519 1518 1517 1517 1516 1516 1515 1515 1514 1514 1513 1512 1511 1511 1510 1510 1509 1509 1508 1508 1507 1507 1507 1507 1507 1507 1506 1505 1505 1505 1505 1504 1504 1504 1504 1504 1504
1534 1534 1534 1534 1534 1534 1533 1533 1533 1532 1532 1532 1532 1532 1532 1532 1532 1532 1533 1533 1534 1534 1534 1534 1534 1535 1535 1535 1535 1535 1535 1534 1532 1531 1530 1530 1529 1528 1527 1526 1525 1524 1524 1523 1522 1522 1521 1520 1520 1519 1519 1518 1518 1517 1516 1516 1515 1515 1514 1513 1513 1512 1511 1511 1510 1510 1510 1509 1509 1509 1509 1509 1508 1508 1507 1507 1507 1506 1506 1506 1506 1505 1505 1505 1505
1534 1534 1534 1534 1534 1533 1533 1533 1532 1532 1532 1532 1532 1532 1532 1532 1532 1532 1533 1533 1534 1534 1534 1535 1535 1535 1535 1536 1535 1535 1535 1534 1534 1532 1531 1529 1529 1528 1527 1526 1526 1525 1524 1524 1523 1523 1522 1522 1521 1520 1520 1519 1519 1518 1518 1517 1516 1516 1515 1514 1514 1513 1512 1512 1511 1511 1511 1510 1510 1510 1510 1510 1510 1509 1509 1508 1508 1508 1507 1507 1507 1507 1507 1507 1507
1533 1533 1533 1533 1533 1533 1533 1532 1532 1532 1532 1532 1532 1532 1532 1532 1532 1533 1533 1533 1534 1534 1535 1535 1535 1535 1536 1536 1535 1535 1535 1535 1534 1533 1532 1530 1529 1528 1527 1527 1526 1526 1525 1524 1524 1524 1523 1522 1522 1521 1520 1520 1519 1519 1518 1517 1517 1516 1515 1515 1514 1513 1513 1512 1512 1511 1511 1511 1512 1512 1512 1511 1511 1510 1510 1509 1509 1509 1509 1509 1508 1508 1508 1508 1508
1532 1532 1533 1533 1533 1533 1533 1532 1532 1531 1532 1532 1532 1532 1532 1532 1533 1533 1534 1534 1534 1535 1535 1535 1535 1535 1535 1535 1535 1535 1535 1535 1534 1534 1533 1532 1530 1528 1528 1527 1527 1526 1526 1525 1525 1524 1524 1523 1522 1522 1521 1520 1520 1519 1518 1517 1517 1516 1515 1515 1514 1513 1513 1512 1512 1512 1512 1512 1512 1513 1512 1512 1511 1511 1511 1510 1510 1510 1510 1510 1510 1509 1509 1509 1509
1532 1532 1532 1532 1532 1532 1532 1532 1532 1532 1532 1532 1532 1532 1532 1533 1533 1533 1534 1534 1535 1535 1535 1535 1535 1535 1535 1535 1535 1535 1535 1535 1534 1534 1533 1532 1530 1529 1528 1528 1527 1527 1526 1526 1525 1525 1524 1524 1523 1522 1522 1521 1520 1519 1518 1517 1516 1516 1515 1514 1514 1513 1513 1512 1512 1512 1512 1512 1512 1513 1513 1513 1512 1512 1512 1512 1511 1511 1511 1511 1511 1511 1510 1510 1510
1531 1531 1531 1532 1532 1532 1532 1532 1532 1532 1532 1532 1532 1533 1533 1533 1533 1534 1534 1534 1534 1535 1535 1535 1535 1535 1535 1535 1535 1535 1535 1535 1535 1534 1533 1532 1530 1529 1529 1528 1528 1527 1527 1526 1526 1525 1525 1524 1523 1523 1522 1521 1520 1520 1519 1518 1517 1516 1515 1514 1514 1513 1513 1513 1513 1513 1513 1513 1513 1513 1513 1513 1513 1513 1513 1512 1512 1512 1512 1512 1511 1511 1511 1511 1511